Location: Peebles
(55.6412°N, 3.1714°W)
Time: 22:31:09
(UTC+00:00)

deb Agena D - Pass Details

Date: 22 September 2023
Orbit: 794 x 979 km, 99.8° (Epoch: 28 November)

Event Time Altitude Azimuth Distance (km) Brightness Sun altitude
Rises 02:52:00 0° 16° (NNE) 3,689 10.6 -29.9°
Reaches altitude 10° 02:54:39 10° 9° (N) 2,744 9.6 -29.7°
Maximum altitude 03:00:09 35° 306° (NW) 1,530 7.5 -29.3°
Enters shadow 03:00:32 35° 298° (WNW) 1,538 7.4 -29.2°
